| time (UTC) | temp F | wind direction | speed MPH | gust MPH | rain 1hr in | rain 24hr in | rain mn in | humidity % | barometer mb |
| 20260509051518 | 52 | 0.0 | 0.0 | 0.00 | 0.00 | 0.00 | 2 | 1010.2 | |
| 20260509050520 | 52 | 0.0 | 0.0 | 0.00 | 0.00 | 0.00 | 100 | 1010.3 | |
| 20260509045519 | 52 | 0.0 | 2.0 | 0.00 | 0.00 | 0.00 | 100 | 1010.3 | |
| 20260509044518 | 52 | 0.0 | 1.0 | 0.00 | 0.00 | 0.00 | 100 | 1010.2 | |
| 20260509043520 | 52 | 0.0 | 0.0 | 0.00 | 0.00 | 0.00 | 100 | 1010.2 | |
| 20260509042519 | 52 | 0.0 | 0.0 | 0.00 | 0.00 | 0.00 | 100 | 1010.3 | |
| 20260509041945 | 52 | 0.0 | 0.0 | 0.00 | 0.00 | 0.00 | 100 | 1010.2 | |
| 20260509040519 | 52 | 0.0 | 2.0 | 0.00 | 0.00 | 0.00 | 100 | 1010.2 | |
| 20260509035729 | 52 | 0.0 | 1.0 | 0.00 | 0.00 | 0.00 | 100 | 1010.3 | |
| 20260509034730 | 52 | 0.0 | 0.0 | 0.00 | 0.00 | 0.00 | 100 | 1010.4 | |
| 20260509033520 | 52 | 0.0 | 2.0 | 0.00 | 0.00 | 0.00 | 3 | 1010.5 | |
| 20260509032732 | 53 | 0.0 | 0.0 | 0.00 | 0.00 | 0.00 | 16 | 1010.5 | |
| 20260509031520 | 53 | 0.0 | 0.0 | 0.00 | 0.00 | 0.00 | 15 | 1010.6 | |
| 20260509030520 | 53 | 0.0 | 0.0 | 0.00 | 0.00 | 0.00 | 15 | 1010.8 | |
| 20260509025530 | 53 | 0.0 | 0.0 | 0.00 | 0.00 | 0.00 | 19 | 1010.9 | |
| 20260509024520 | 53 | 0.0 | 0.0 | 0.00 | 0.00 | 0.00 | 18 | 1010.8 | |
| 20260509023520 | 53 | 0.0 | 2.0 | 0.00 | 0.00 | 0.00 | 32 | 1010.5 | |
| 20260509022520 | 54 | 0.0 | 0.0 | 0.00 | 0.00 | 0.00 | 33 | 1010.2 | |
| 20260509021520 | 54 | 0.0 | 0.0 | 0.00 | 0.00 | 0.00 | 37 | 1010.2 | |
| 20260509020520 | 54 | 0.0 | 0.0 | 0.00 | 0.00 | 0.00 | 36 | 1010.3 | |
| 20260509015520 | 54 | 0.0 | 1.0 | 0.00 | 0.00 | 0.00 | 42 | 1010.2 | |
| 20260509014519 | 54 | 0.0 | 1.0 | 0.00 | 0.00 | 0.00 | 48 | 1010.2 | |
| 20260509013520 | 55 | 0.0 | 0.0 | 0.00 | 0.00 | 0.00 | 45 | 1010.2 | |
| 20260509012520 | 55 | 0.0 | 1.0 | 0.00 | 0.00 | 0.00 | 48 | 1010.1 | |
| 20260509011520 | 55 | 0.0 | 0.0 | 0.00 | 0.00 | 0.00 | 57 | 1010.1 | |
| 20260509010520 | 55 | 0.0 | 0.0 | 0.00 | 0.00 | 0.00 | 58 | 1009.9 | |
| 20260509005520 | 56 | 0.0 | 2.0 | 0.00 | 0.00 | 0.00 | 60 | 1009.9 | |
| 20260509004732 | 56 | 0.0 | 0.0 | 0.00 | 0.00 | 0.00 | 59 | 1009.8 | |
| 20260509003518 | 56 | 0.0 | 0.0 | 0.00 | 0.00 | 0.00 | 61 | 1009.9 | |
| 20260509002520 | 56 | 0.0 | 0.0 | 0.00 | 0.00 | 0.00 | 61 | 1009.9 | |
| 20260509001520 | 57 | 0.0 | 1.0 | 0.00 | 0.00 | 0.00 | 62 | 1009.8 | |
| 20260509000520 | 57 | 0.0 | 0.0 | 0.00 | 0.00 | 0.00 | 62 | 1009.7 | |
| 20260508235520 | 58 | 0.0 | 2.0 | 0.00 | 0.00 | 0.00 | 62 | 1009.8 | |
| 20260508234520 | 59 | 0.0 | 0.0 | 0.00 | 0.00 | 0.00 | 60 | 1009.5 | |
| 20260508233520 | 60 | 0.0 | 1.0 | 0.00 | 0.00 | 0.00 | 58 | 1009.4 | |
| 20260508232520 | 61 | 248 | 1.0 | 4.0 | 0.00 | 0.00 | 0.00 | 56 | 1009.3 |
| 20260508231520 | 61 | 248 | 1.0 | 4.0 | 0.00 | 0.00 | 0.00 | 55 | 1009.1 |
| 20260508230520 | 62 | 248 | 1.0 | 2.0 | 0.00 | 0.00 | 0.00 | 53 | 1009.0 |
| 20260508225732 | 62 | 248 | 1.0 | 4.0 | 0.00 | 0.00 | 0.00 | 52 | 1009.1 |
| 20260508224520 | 62 | 248 | 1.0 | 4.0 | 0.00 | 0.00 | 0.00 | 50 | 1009.1 |
| 20260508223520 | 62 | 248 | 1.0 | 3.0 | 0.00 | 0.00 | 0.00 | 50 | 1009.1 |
| 20260508222730 | 62 | 0.0 | 1.0 | 0.00 | 0.00 | 0.00 | 50 | 1009.0 | |
| 20260508221520 | 62 | 248 | 4.0 | 6.0 | 0.00 | 0.00 | 0.00 | 48 | 1008.9 |
| 20260508220520 | 63 | 315 | 2.0 | 6.0 | 0.00 | 0.00 | 0.00 | 48 | 1008.8 |
| 20260508215520 | 62 | 293 | 4.0 | 9.0 | 0.00 | 0.00 | 0.00 | 47 | 1008.9 |
| 20260508214520 | 62 | 270 | 3.0 | 8.0 | 0.00 | 0.00 | 0.00 | 47 | 1009.0 |
| 20260508213520 | 62 | 293 | 5.0 | 8.0 | 0.00 | 0.00 | 0.00 | 47 | 1009.2 |
| 20260508212520 | 63 | 293 | 3.0 | 10.0 | 0.00 | 0.00 | 0.00 | 45 | 1009.2 |
| 20260508211520 | 63 | 270 | 3.0 | 9.0 | 0.00 | 0.00 | 0.00 | 44 | 1009.1 |
| 20260508210520 | 64 | 248 | 5.0 | 11.0 | 0.00 | 0.00 | 0.00 | 42 | 1008.9 |
| 20260508205520 | 64 | 225 | 2.0 | 5.0 | 0.00 | 0.00 | 0.00 | 41 | 1008.8 |
| 20260508204520 | 64 | 270 | 5.0 | 9.0 | 0.00 | 0.00 | 0.00 | 42 | 1009.0 |
| 20260508203520 | 64 | 315 | 3.0 | 6.0 | 0.00 | 0.00 | 0.00 | 39 | 1008.9 |
| 20260508202520 | 64 | 315 | 5.0 | 9.0 | 0.00 | 0.00 | 0.00 | 39 | 1008.9 |
| 20260508201520 | 64 | 293 | 2.0 | 7.0 | 0.00 | 0.01 | 0.00 | 42 | 1009.0 |
| 20260508200521 | 64 | 293 | 2.0 | 6.0 | 0.00 | 0.01 | 0.00 | 41 | 1008.9 |
| 20260508195520 | 64 | 293 | 2.0 | 6.0 | 0.00 | 0.01 | 0.00 | 42 | 1009.0 |
| 20260508194520 | 64 | 293 | 4.0 | 9.0 | 0.00 | 0.01 | 0.00 | 41 | 1009.0 |
| 20260508193518 | 65 | 248 | 3.0 | 8.0 | 0.00 | 0.01 | 0.00 | 41 | 1009.0 |
| 20260508192520 | 66 | 270 | 5.0 | 14.0 | 0.00 | 0.01 | 0.00 | 40 | 1009.0 |
| 20260508191520 | 66 | 248 | 4.0 | 9.0 | 0.00 | 0.01 | 0.00 | 40 | 1009.1 |
| 20260508190734 | 66 | 293 | 2.0 | 8.0 | 0.00 | 0.01 | 0.00 | 43 | 1009.1 |
| 20260508185518 | 64 | 293 | 2.0 | 5.0 | 0.00 | 0.01 | 0.00 | 46 | 1009.6 |
| 20260508184520 | 63 | 293 | 3.0 | 6.0 | 0.00 | 0.01 | 0.00 | 44 | 1009.7 |
| 20260508183732 | 63 | 293 | 6.0 | 16.0 | 0.00 | 0.01 | 0.00 | 42 | 1009.8 |
| 20260508182519 | 62 | 293 | 3.0 | 5.0 | 0.00 | 0.01 | 0.00 | 48 | 1009.9 |
| 20260508181521 | 62 | 225 | 5.0 | 10.0 | 0.00 | 0.01 | 0.00 | 47 | 1009.9 |
| 20260508180734 | 63 | 203 | 4.0 | 7.0 | 0.00 | 0.01 | 0.00 | 46 | 1009.9 |
| 20260508175520 | 63 | 203 | 6.0 | 14.0 | 0.00 | 0.01 | 0.00 | 48 | 1010.1 |
| 20260508174731 | 62 | 270 | 5.0 | 12.0 | 0.00 | 0.01 | 0.00 | 49 | 1010.3 |
| 20260508173520 | 61 | 203 | 4.0 | 11.0 | 0.00 | 0.01 | 0.00 | 49 | 1010.5 |
| 20260508172733 | 61 | 270 | 6.0 | 13.0 | 0.00 | 0.01 | 0.00 | 47 | 1010.3 |
| 20260508171518 | 61 | 225 | 7.0 | 14.0 | 0.00 | 0.02 | 0.00 | 47 | 1010.4 |
| 20260508170520 | 61 | 248 | 8.0 | 14.0 | 0.00 | 0.02 | 0.00 | 47 | 1010.5 |
| 20260508165944 | 62 | 203 | 7.0 | 18.0 | 0.00 | 0.02 | 0.00 | 47 | 1010.5 |
| 20260508164519 | 60 | 270 | 7.0 | 15.0 | 0.00 | 0.02 | 0.00 | 46 | 1010.6 |
| 20260508163520 | 61 | 270 | 6.0 | 14.0 | 0.00 | 0.02 | 0.00 | 46 | 1010.8 |
| 20260508162520 | 61 | 225 | 9.0 | 20.0 | 0.00 | 0.02 | 0.00 | 45 | 1010.7 |
| 20260508161520 | 61 | 248 | 8.0 | 16.0 | 0.00 | 0.02 | 0.00 | 47 | 1011.0 |
| 20260508160519 | 60 | 225 | 7.0 | 13.0 | 0.00 | 0.02 | 0.00 | 47 | 1011.1 |
| 20260508155520 | 60 | 270 | 5.0 | 9.0 | 0.00 | 0.02 | 0.00 | 47 | 1011.2 |
| 20260508154518 | 60 | 225 | 5.0 | 10.0 | 0.00 | 0.02 | 0.00 | 49 | 1011.4 |
| 20260508153520 | 60 | 225 | 5.0 | 12.0 | 0.00 | 0.02 | 0.00 | 50 | 1011.3 |
| 20260508152520 | 60 | 225 | 5.0 | 13.0 | 0.00 | 0.02 | 0.00 | 50 | 1011.4 |
| 20260508151730 | 60 | 225 | 7.0 | 13.0 | 0.00 | 0.02 | 0.00 | 51 | 1011.3 |
| 20260508150518 | 60 | 203 | 6.0 | 13.0 | 0.00 | 0.02 | 0.00 | 51 | 1011.6 |
| 20260508145520 | 59 | 225 | 5.0 | 11.0 | 0.00 | 0.02 | 0.00 | 54 | 1011.5 |
| 20260508144733 | 58 | 293 | 6.0 | 14.0 | 0.00 | 0.02 | 0.00 | 52 | 1011.7 |
| 20260508143519 | 58 | 225 | 7.0 | 15.0 | 0.00 | 0.02 | 0.00 | 54 | 1011.8 |
| 20260508142520 | 57 | 293 | 6.0 | 12.0 | 0.00 | 0.02 | 0.00 | 57 | 1011.9 |
| 20260508141519 | 56 | 225 | 5.0 | 9.0 | 0.00 | 0.02 | 0.00 | 58 | 1011.9 |
| 20260508140732 | 56 | 203 | 5.0 | 12.0 | 0.00 | 0.02 | 0.00 | 56 | 1012.0 |
| 20260508135518 | 56 | 203 | 5.0 | 14.0 | 0.00 | 0.02 | 0.00 | 58 | 1012.0 |
| 20260508134519 | 55 | 225 | 4.0 | 8.0 | 0.00 | 0.02 | 0.00 | 58 | 1012.2 |
| 20260508133518 | 54 | 225 | 6.0 | 12.0 | 0.00 | 0.02 | 0.00 | 58 | 1012.2 |
| 20260508132519 | 53 | 225 | 5.0 | 14.0 | 0.00 | 0.02 | 0.00 | 59 | 1012.4 |
| 20260508131521 | 51 | 248 | 4.0 | 13.0 | 0.00 | 0.02 | 0.00 | 62 | 1012.5 |
| 20260508130733 | 49 | 293 | 3.0 | 6.0 | 0.00 | 0.02 | 0.00 | 64 | 1012.6 |
| 20260508125942 | 48 | 315 | 1.0 | 6.0 | 0.00 | 0.02 | 0.00 | 21 | 1012.6 |
| 20260508124518 | 47 | 0.0 | 0.0 | 0.00 | 0.02 | 0.00 | 100 | 1012.5 | |
| 20260508123520 | 47 | 0.0 | 0.0 | 0.00 | 0.02 | 0.00 | 100 | 1012.5 | |
| 20260508122519 | 47 | 0.0 | 0.0 | 0.00 | 0.02 | 0.00 | 100 | 1012.5 | |
| 20260508121519 | 46 | 0.0 | 0.0 | 0.00 | 0.03 | 0.00 | 100 | 1012.5 | |
| 20260508120518 | 45 | 0.0 | 0.0 | 0.00 | 0.03 | 0.00 | 100 | 1012.3 | |
| 20260508115519 | 44 | 0.0 | 0.0 | 0.00 | 0.03 | 0.00 | 100 | 1012.4 | |
| 20260508115156 | 43 | 0.0 | 0.0 | 0.00 | 0.03 | 0.00 | 100 | 1012.2 | |
| 20260508113519 | 43 | 0.0 | 0.0 | 0.00 | 0.03 | 0.00 | 100 | 1012.2 | |
| 20260508112519 | 42 | 0.0 | 0.0 | 0.00 | 0.03 | 0.00 | 100 | 1012.1 | |
| 20260508111941 | 42 | 0.0 | 0.0 | 0.00 | 0.03 | 0.00 | 100 | 1012.0 | |
| 20260508110942 | 41 | 0.0 | 0.0 | 0.00 | 0.03 | 0.00 | 100 | 1011.9 | |
| 20260508105730 | 39 | 0.0 | 0.0 | 0.00 | 0.03 | 0.00 | 100 | 1011.7 | |
| 20260508104519 | 38 | 0.0 | 0.0 | 0.00 | 0.03 | 0.00 | 100 | 1011.5 | |
| 20260508103731 | 38 | 0.0 | 0.0 | 0.00 | 0.03 | 0.00 | 100 | 1011.6 | |
| 20260508102518 | 39 | 0.0 | 0.0 | 0.00 | 0.03 | 0.00 | 100 | 1011.7 | |
| 20260508101519 | 39 | 0.0 | 0.0 | 0.00 | 0.03 | 0.00 | 100 | 1011.4 | |
| 20260508100519 | 39 | 0.0 | 0.0 | 0.00 | 0.03 | 0.00 | 100 | 1011.2 | |
| 20260508095943 | 39 | 0.0 | 0.0 | 0.00 | 0.03 | 0.00 | 100 | 1011.3 | |
| 20260508094519 | 39 | 0.0 | 0.0 | 0.00 | 0.03 | 0.00 | 100 | 1011.2 | |
| 20260508093732 | 40 | 0.0 | 0.0 | 0.00 | 0.03 | 0.00 | 100 | 1011.4 | |
| 20260508092519 | 40 | 0.0 | 0.0 | 0.00 | 0.03 | 0.00 | 100 | 1011.3 | |
| 20260508091519 | 40 | 0.0 | 0.0 | 0.00 | 0.03 | 0.00 | 100 | 1011.4 | |
| 20260508090730 | 40 | 0.0 | 0.0 | 0.00 | 0.03 | 0.00 | 100 | 1011.3 | |
| 20260508085519 | 40 | 0.0 | 0.0 | 0.00 | 0.03 | 0.00 | 7 | 1011.2 | |
| 20260508084519 | 41 | 0.0 | 0.0 | 0.00 | 0.03 | 0.00 | 14 | 1011.3 | |
| 20260508083519 | 42 | 0.0 | 0.0 | 0.00 | 0.03 | 0.00 | 25 | 1011.2 | |
| 20260508082519 | 42 | 0.0 | 0.0 | 0.00 | 0.03 | 0.00 | 36 | 1011.0 | |
| 20260508081519 | 43 | 0.0 | 1.0 | 0.00 | 0.03 | 0.00 | 38 | 1011.1 | |
| 20260508080731 | 43 | 315 | 1.0 | 2.0 | 0.00 | 0.03 | 0.00 | 47 | 1011.1 |
| 20260508075519 | 44 | 0.0 | 0.0 | 0.00 | 0.03 | 0.00 | 54 | 1011.0 | |
| 20260508074519 | 44 | 0.0 | 2.0 | 0.00 | 0.03 | 0.00 | 59 | 1011.1 | |
| 20260508073519 | 45 | 0.0 | 0.0 | 0.00 | 0.03 | 0.00 | 65 | 1011.1 | |
| 20260508072519 | 47 | 315 | 1.0 | 4.0 | 0.00 | 0.03 | 0.00 | 65 | 1011.1 |
| 20260508071519 | 47 | 315 | 1.0 | 3.0 | 0.00 | 0.03 | 0.00 | 65 | 1011.0 |
| 20260508070519 | 47 | 315 | 1.0 | 3.0 | 0.00 | 0.03 | 0.00 | 65 | 1011.1 |
| 20260508065732 | 47 | 315 | 1.0 | 3.0 | 0.00 | 0.03 | 0.00 | 65 | 1010.9 |
| 20260508064519 | 47 | 0.0 | 2.0 | 0.00 | 0.03 | 0.00 | 65 | 1011.0 | |
| 20260508063519 | 48 | 315 | 1.0 | 2.0 | 0.00 | 0.04 | 0.00 | 64 | 1010.9 |
| 20260508062519 | 49 | 0.0 | 1.0 | 0.00 | 0.04 | 0.00 | 62 | 1011.0 | |
| 20260508061519 | 50 | 315 | 1.0 | 3.0 | 0.00 | 0.04 | 0.00 | 61 | 1010.9 |
| 20260508060519 | 51 | 315 | 1.0 | 5.0 | 0.00 | 0.04 | 0.00 | 60 | 1010.9 |
| 20260508055519 | 51 | 315 | 3.0 | 6.0 | 0.00 | 0.04 | 0.00 | 60 | 1010.8 |
| 20260508054942 | 51 | 315 | 3.0 | 6.0 | 0.00 | 0.04 | 0.00 | 59 | 1010.8 |
| 20260508053730 | 51 | 315 | 3.0 | 5.0 | 0.00 | 0.04 | 0.00 | 59 | 1010.8 |
| 20260508052519 | 52 | 315 | 4.0 | 7.0 | 0.00 | 0.04 | 0.00 | 58 | 1010.8 |